[[{"header":{"parameterUnit":"m.s-1","parameterCategory":1,"la1":30.2991,"la2":30.254,"lo1":-89.0895,"lo2":-89.0444,"dy":0.0017,"dx":0.0017,"nx":28,"ny":28,"refTime":"2026-02-25T03:00:00:Z","depth":0,"parameterNumber":2,"parameterNumberName":"U-component_of_WINDS"},"data":[0,0,0,0,0,0,0,0,0,0,0,0,0,0,0,0,0,0,0,0,0,0,0,0,0,0,0,0,0,0,0,0,0,0,0,0,0,0,0,0,0,0,0,0,0,0,0,0,0,0,0,0,0,0,0,0,0,0,2.9808,2.9809,0,2.9863,2.9864,2.9864,2.9798,2.9795,2.9793,2.9791,2.9847,2.9851,2.9855,0,0,0,0,0,0,0,0,0,0,0,0,0,2.9645,2.9648,2.9808,2.9809,2.981,2.9863,2.9864,2.9864,2.9798,2.9795,2.9792,2.979,2.9846,2.985,2.9855,0,0,0,0,0,0,0,0,0,0,0,0,0,2.9709,2.9649,2.9808,2.9783,2.9781,2.9863,2.9864,2.9865,2.9799,2.9795,2.9792,2.9788,2.9844,2.985,2.9856,2.9964,0,0,2.9873,2.9875,0,0,0,0,0,0,0,0,2.9706,2.9715,2.9786,2.9785,2.9783,2.982,2.9827,2.9898,2.98,2.9792,2.9791,2.9786,2.9841,2.9847,2.9865,2.9967,2.9969,2.9874,2.9877,2.9879,2.9881,0,0,0,0,0,0,0,2.9701,2.9713,2.983,2.9787,2.9786,2.9768,2.9774,2.984,2.9837,2.9793,2.9788,2.9795,2.984,2.986,2.9866,2.997,2.9873,2.9878,2.9882,2.9884,3.0159,3.0163,0,0,0,0,0,0,2.97,2.9709,2.9828,2.9832,2.9735,2.9774,2.978,2.9812,2.9836,2.9836,2.9798,2.9792,2.9852,2.9859,2.9868,2.9993,2.9879,2.9885,2.9888,3.0155,3.016,3.0164,0,0,0,0,0,0,2.9697,2.9711,2.9826,2.9769,2.9783,2.9781,2.9817,2.9815,2.9835,2.984,2.9839,2.982,2.9849,2.986,2.994,2.9994,2.9887,2.9892,3.0151,3.0157,3.0162,3.0246,0,0,0,0,0,0,2.9692,2.971,2.9752,2.9771,2.9786,2.9898,2.9821,2.9819,2.9845,2.9837,2.986,2.986,2.9847,2.9932,2.9945,3.0,2.9897,3.0146,3.0153,3.016,3.0239,3.0254,3.0268,0,0,0,0,0,2.9687,2.9775,2.9755,2.977,2.9838,2.9901,2.991,2.9893,2.985,2.9891,2.9894,2.9859,2.9986,2.994,2.9955,3.0012,3.0142,3.0151,3.016,3.0232,3.0251,3.0267,0,0,0,0,0,0,2.9764,2.9777,2.9755,2.9852,2.9876,2.989,2.9942,2.9915,2.9951,2.9943,2.992,2.9926,3.001,3.002,2.9968,3.0116,3.0057,3.0069,3.0107,3.0125,3.0139,3.0134,2.9902,0,0,0,0,0,2.9793,2.9843,2.9851,2.9936,2.9949,2.9944,2.9971,2.9955,2.9979,2.9989,2.9998,3.0022,3.0067,3.0097,3.0139,3.024,3.0242,3.0287,3.0301,3.0313,3.0323,3.0373,3.0392,3.0193,3.0193,3.0193,0,0,2.9852,2.9865,2.9898,2.9952,2.9969,3.002,2.9953,3.0011,3.0048,2.9998,3.0072,3.008,3.0105,3.0195,3.0236,3.0206,3.0379,3.0324,3.0334,3.0337,3.0384,3.0403,3.042,3.0199,3.0198,3.0197,0,0,2.9985,3.0002,3.0072,3.0089,3.0115,3.011,3.0127,3.0145,3.0147,3.0222,3.0184,3.0228,3.0307,3.0325,3.0345,3.0482,3.045,3.0497,3.0572,3.0621,3.0636,3.065,3.0695,3.0712,3.0507,3.0507,3.0507,0,3.0055,3.0131,3.0111,3.0171,3.0194,3.015,3.022,3.0238,3.0276,3.0293,3.0259,3.0354,3.0369,3.0461,3.0494,3.0513,3.0529,3.0493,3.0636,3.0649,3.0662,3.0705,3.0722,3.0512,3.0512,3.0511,3.0511,0,3.0214,3.0267,3.032,3.0356,3.0386,3.0451,3.044,3.0472,3.0454,3.0452,3.0527,3.0543,3.0585,3.0606,3.059,3.0695,3.0675,3.0639,3.0578,3.0686,3.0726,3.0742,3.052,3.0518,3.0516,3.0515,0,0,3.0397,3.042,3.0439,3.0453,3.0477,3.0517,3.0579,3.062,3.0646,3.0674,3.0723,3.0789,3.0755,3.0778,3.0763,3.0807,3.0909,3.0765,3.0765,3.0788,3.1021,3.1045,3.1065,3.0889,3.0892,3.0895,3.1017,0,3.0527,3.0633,3.0616,3.0717,3.0764,3.0722,3.0775,3.0795,3.0795,3.0833,3.0833,3.0879,3.0833,3.0845,3.0887,3.0888,3.0955,3.0879,3.0932,3.0935,3.0924,3.1086,3.1113,3.1228,3.1033,3.1036,3.1038,0,3.0693,3.0724,3.083,3.0843,3.0862,3.091,3.0943,3.0982,3.1003,3.0999,3.1023,3.1,3.1059,3.0999,3.1079,3.1028,3.1049,3.1052,3.1056,3.1058,3.0991,3.1089,3.1264,3.128,3.1063,3.1061,3.1059,0,3.0811,3.088,3.0951,3.0965,3.0983,3.1017,3.1026,3.1043,3.1067,3.1097,3.1112,3.115,3.1169,3.1198,3.1184,3.1142,3.1265,3.1205,3.1262,3.1262,3.1288,3.1286,3.1465,3.1307,3.1307,3.1306,3.1306,0,3.0956,3.1021,3.1004,3.1047,3.1118,3.1098,3.1169,3.1173,3.1188,3.123,3.1198,3.1238,3.1219,3.1258,3.1248,3.1314,3.1324,3.1321,3.1317,3.1322,3.1322,3.1333,3.1324,3.1311,3.131,3.1309,3.1308,0,3.1099,3.109,3.1164,3.1174,3.1178,3.123,3.1238,3.1278,3.1275,3.1329,3.134,3.1335,3.1378,3.1368,3.1417,3.141,3.1491,3.1479,3.1484,3.1479,3.1535,3.1529,3.1726,3.1749,3.1579,3.1581,3.1582,0,3.119,3.1239,3.1254,3.1279,3.129,3.1333,3.1356,3.1338,3.1364,3.1389,3.1426,3.1466,3.1497,3.1569,3.1569,3.1605,3.1591,3.1657,3.1596,3.1598,3.1587,3.1583,3.1586,3.1669,3.1671,3.1672,3.1674,0,3.1352,3.1345,3.138,3.1414,3.1442,3.1468,3.1491,3.1514,3.1497,3.1527,3.1571,3.1595,3.1643,3.1682,3.1715,3.1723,3.1695,3.1693,3.1707,3.1712,3.1711,3.1708,3.1513,3.1688,3.1687,3.1686,3.1685,3.1684,3.147,3.1509,3.1525,3.1564,3.1579,3.16,3.1637,3.1637,3.1673,3.171,3.1697,3.1746,3.1762,3.1803,3.1815,3.1852,3.1827,3.1849,3.1854,3.1859,3.1864,3.1708,3.1859,3.1858,3.1858,3.1858,3.1857,0,3.1626,3.1633,3.167,3.1702,3.1732,3.1703,3.1726,3.1753,3.1796,3.1814,3.1844,3.1893,3.193,3.1933,3.1968,3.1997,3.1985,3.2006,3.2002,3.2004,3.1886,3.1869,3.2015,3.2015,3.2015,3.2015,3.2015,3.2015,3.1711,3.1775,3.177,3.184,3.1847,3.1894,3.1909,3.1927,3.1941,3.1996,3.2026,3.2028,3.2039,3.2074,3.2106,3.2106,3.2119,3.2145,3.2139,3.2029,3.2013,3.1998,3.1981,3.2149,3.2149,3.2253,3.2254,3.2255]},{"header":{"parameterUnit":"m.s-1","parameterCategory":1,"la1":30.2991,"la2":30.254,"lo1":-89.0895,"lo2":-89.0444,"dy":0.0017,"dx":0.0017,"nx":28,"ny":28,"refTime":"2026-02-25T03:00:00:Z","depth":0,"parameterNumber":3,"parameterNumberName":"V-component_of_WINDS"},"data":[0,0,0,0,0,0,0,0,0,0,0,0,0,0,0,0,0,0,0,0,0,0,0,0,0,0,0,0,0,0,0,0,0,0,0,0,0,0,0,0,0,0,0,0,0,0,0,0,0,0,0,0,0,0,0,0,0,0,5.7618,5.7619,0,5.7678,5.7678,5.7679,5.7619,5.7617,5.7615,5.7612,5.7669,5.7673,5.7676,0,0,0,0,0,0,0,0,0,0,0,0,0,5.7446,5.745,5.7618,5.7619,5.762,5.7678,5.7678,5.7679,5.762,5.7617,5.7614,5.7611,5.7668,5.7672,5.7677,0,0,0,0,0,0,0,0,0,0,0,0,0,5.7515,5.7451,5.7618,5.7597,5.7596,5.7678,5.7679,5.768,5.762,5.7617,5.7613,5.761,5.7667,5.7672,5.7677,5.7782,0,0,5.7694,5.7697,0,0,0,0,0,0,0,0,5.7511,5.7521,5.7599,5.7599,5.7597,5.7638,5.7639,5.7714,5.7621,5.7611,5.7612,5.7608,5.7661,5.7667,5.7686,5.7784,5.7787,5.7695,5.7698,5.77,5.7702,0,0,0,0,0,0,0,5.7506,5.7518,5.7642,5.76,5.7599,5.7582,5.7588,5.7653,5.7655,5.7611,5.7607,5.7615,5.766,5.7681,5.7687,5.7788,5.7695,5.77,5.7703,5.7705,5.797,5.7974,0,0,0,0,0,0,5.7505,5.7515,5.764,5.7643,5.7545,5.7588,5.7595,5.7628,5.7654,5.7655,5.7618,5.7612,5.7673,5.768,5.7688,5.7809,5.77,5.7706,5.7709,5.7966,5.7971,5.7975,0,0,0,0,0,0,5.7501,5.7516,5.7637,5.7578,5.7592,5.7595,5.7633,5.7631,5.7652,5.7659,5.7659,5.7639,5.767,5.7681,5.7758,5.781,5.7708,5.7713,5.7962,5.7968,5.7973,5.8053,0,0,0,0,0,0,5.7497,5.7516,5.7557,5.7579,5.7596,5.7708,5.7636,5.7635,5.7662,5.7655,5.7679,5.7679,5.7668,5.775,5.7764,5.7816,5.7717,5.7957,5.7965,5.7971,5.8045,5.806,5.8073,0,0,0,0,0,5.7491,5.7577,5.7559,5.7575,5.7648,5.7711,5.772,5.7707,5.7666,5.7706,5.7711,5.7679,5.7803,5.7759,5.7773,5.7828,5.7954,5.7962,5.7971,5.8039,5.8057,5.8073,0,0,0,0,0,0,5.756,5.758,5.756,5.7657,5.7683,5.7701,5.7752,5.7728,5.7765,5.7756,5.7737,5.7743,5.7824,5.7834,5.7785,5.7928,5.7871,5.7883,5.7918,5.7936,5.7949,5.7944,5.7722,0,0,0,0,0,5.7587,5.7639,5.7653,5.7736,5.775,5.7749,5.7776,5.7764,5.7789,5.78,5.781,5.7835,5.7879,5.7908,5.795,5.8047,5.8049,5.8092,5.8106,5.8117,5.8126,5.8175,5.8192,5.8002,5.8002,5.8002,0,0,5.7642,5.7659,5.7693,5.7751,5.7769,5.7821,5.7759,5.7817,5.7854,5.7808,5.7881,5.789,5.7916,5.8003,5.8042,5.8013,5.818,5.8128,5.8137,5.814,5.8185,5.8203,5.8219,5.8008,5.8007,5.8006,0,0,5.7768,5.7788,5.7858,5.7878,5.7907,5.7905,5.7922,5.7944,5.7948,5.8021,5.7987,5.803,5.8108,5.8127,5.8146,5.8277,5.8248,5.8291,5.8363,5.841,5.8425,5.8438,5.8481,5.8498,5.8301,5.8302,5.8302,0,5.7833,5.7911,5.7897,5.7957,5.7981,5.7943,5.8012,5.8032,5.8073,5.8089,5.8058,5.8152,5.8167,5.8256,5.8288,5.8307,5.8322,5.8288,5.8425,5.8437,5.8449,5.849,5.8507,5.8306,5.8306,5.8305,5.8305,0,5.7987,5.8041,5.8094,5.8134,5.8165,5.823,5.8223,5.8256,5.824,5.8241,5.8314,5.8331,5.8373,5.8394,5.838,5.848,5.8461,5.8428,5.837,5.8473,5.851,5.8526,5.8313,5.8312,5.831,5.8309,0,0,5.8158,5.8189,5.8208,5.8224,5.8253,5.8294,5.8355,5.8397,5.8423,5.8453,5.8501,5.8567,5.8535,5.8557,5.8545,5.8587,5.8685,5.8547,5.8547,5.8569,5.8792,5.8815,5.8834,5.8666,5.8669,5.8672,5.8789,0,5.8282,5.839,5.8378,5.8479,5.8527,5.849,5.8543,5.8564,5.8566,5.8606,5.8607,5.8652,5.8609,5.8622,5.8662,5.8664,5.8729,5.8656,5.8708,5.871,5.87,5.8854,5.8879,5.8989,5.8804,5.8807,5.8809,0,5.8442,5.8476,5.8582,5.86,5.862,5.8668,5.8703,5.8743,5.8765,5.8763,5.8788,5.8767,5.8825,5.8768,5.8846,5.8797,5.8818,5.8822,5.8826,5.8828,5.8764,5.8857,5.9024,5.904,5.8832,5.883,5.8829,0,5.8552,5.8625,5.8697,5.8712,5.8736,5.877,5.8781,5.88,5.8825,5.8857,5.8872,5.891,5.8929,5.8958,5.8946,5.8907,5.9025,5.8968,5.9023,5.9023,5.9047,5.9046,5.9217,5.9066,5.9066,5.9066,5.9065,0,5.869,5.8755,5.8746,5.879,5.886,5.8845,5.8915,5.8922,5.8939,5.8981,5.8953,5.8993,5.8977,5.9016,5.9007,5.9071,5.9081,5.9079,5.9075,5.908,5.908,5.9091,5.9082,5.907,5.9069,5.9068,5.9067,0,5.8824,5.8821,5.8896,5.8912,5.8917,5.8968,5.8981,5.9021,5.902,5.9074,5.9086,5.9084,5.9128,5.912,5.9168,5.9162,5.9241,5.923,5.9234,5.923,5.9283,5.9277,5.9466,5.9488,5.9326,5.9328,5.9329,0,5.8911,5.896,5.8981,5.9008,5.9021,5.9065,5.909,5.9077,5.9103,5.9132,5.9167,5.9209,5.924,5.9311,5.9313,5.9349,5.9336,5.94,5.9341,5.9343,5.9333,5.9329,5.9332,5.9411,5.9412,5.9414,5.9415,0,5.9065,5.906,5.9098,5.9135,5.9165,5.9194,5.9219,5.9242,5.923,5.9261,5.9306,5.9331,5.9379,5.9419,5.9452,5.9461,5.9435,5.9434,5.9448,5.9451,5.945,5.9448,5.9262,5.9429,5.9428,5.9427,5.9426,5.9425,5.9175,5.9216,5.9236,5.9278,5.9296,5.9319,5.9356,5.936,5.9397,5.9436,5.9426,5.9475,5.9493,5.9535,5.9548,5.9585,5.9561,5.9582,5.9587,5.9592,5.9596,5.9447,5.9592,5.9591,5.9591,5.959,5.959,0,5.9324,5.9335,5.9374,5.941,5.9442,5.9417,5.9442,5.947,5.9515,5.9535,5.9566,5.9616,5.9654,5.9659,5.9694,5.9722,5.9711,5.9732,5.9728,5.973,5.9618,5.96,5.974,5.974,5.974,5.974,5.974,5.974,5.9405,5.9471,5.9469,5.9542,5.9552,5.96,5.9617,5.9637,5.9653,5.9709,5.9741,5.9744,5.9757,5.9793,5.9826,5.9826,5.9839,5.9864,5.9859,5.9753,5.9738,5.9724,5.9707,5.9867,5.9867,5.9967,5.9968,5.9969]}]]